CW0262 Weather Reports


Display with metric or nautical units.
time (UTC)temp
F
wind
direction
speed
MPH
gust
MPH
rain 1hr
in
rain 24hr
in
rain mn
in
humidity
%
barometer
mb
20260506021704 76 94 5.0 8.0 0.00 0.00 0.00 94 1016.2
20260506021204 76 90 4.0 6.0 0.00 0.00 0.00 94 1015.7
20260506020204 76 94 6.0 8.0 0.00 0.00 0.00 94 1015.2
20260506014704 76 91 3.0 6.0 0.00 0.00 0.00 93 1015.2
20260506014203 76 101 5.0 8.0 0.00 0.00 0.00 93 1015.2
20260506013704 76 94 5.0 6.0 0.00 0.00 0.00 92 1015.2
20260506013204 76 72 3.0 9.0 0.00 0.00 0.00 93 1015.2
20260506011704 76 96 5.0 8.0 0.00 0.00 0.00 92 1015.2
20260506011203 76 91 6.0 9.0 0.00 0.00 0.00 92 1015.2
20260506010704 76 89 5.0 9.0 0.00 0.00 0.00 92 1015.2
20260506010204 76 85 6.0 8.0 0.00 0.00 0.00 92 1015.2
20260506004704 76 75 6.0 8.0 0.00 0.00 0.00 91 1015.2
20260506004204 76 86 6.0 8.0 0.00 0.00 0.00 92 1015.2
20260506003704 76 90 6.0 9.0 0.00 0.00 0.00 92 1015.2
20260506003204 76 85 6.0 10.0 0.00 0.00 0.00 91 1015.2
20260506001705 77 91 7.0 12.0 0.00 0.00 0.00 91 1015.2
20260506001204 77 102 5.0 8.0 0.00 0.00 0.00 90 1014.4
20260506000704 77 90 6.0 8.0 0.00 0.00 0.00 90 1014.2
20260505234704 77 76 6.0 9.0 0.00 0.00 0.00 87 1014.2
20260505234204 77 95 6.0 8.0 0.00 0.00 0.00 88 1014.2
20260505233704 78 80 7.0 9.0 0.00 0.00 0.00 87 1014.2
20260505233203 78 100 8.0 12.0 0.00 0.00 0.00 86 1014.2
20260505231704 78 92 7.0 10.0 0.00 0.00 0.00 86 1015.2
20260505231204 78 92 8.0 12.0 0.00 0.00 0.00 86 1015.2
20260505230704 78 85 7.0 10.0 0.00 0.00 0.00 86 1015.2
20260505224704 79 74 7.0 12.0 0.00 0.00 0.00 83 1014.2
20260505224203 79 67 9.0 13.0 0.00 0.00 0.00 84 1014.2
20260505223705 79 85 7.0 12.0 0.00 0.00 0.00 82 1014.2
20260505223203 80 82 8.0 12.0 0.00 0.00 0.00 81 1014.2
20260505221705 80 84 7.0 13.0 0.00 0.00 0.00 82 1014.2
20260505221204 80 83 9.0 13.0 0.00 0.00 0.00 83 1014.2
20260505220204 80 84 9.0 13.0 0.00 0.00 0.00 81 1014.2
20260505214704 81 67 10.0 13.0 0.00 0.00 0.00 80 1014.2
20260505213705 82 45 9.0 12.0 0.00 0.00 0.00 77 1014.2
20260505213203 82 63 9.0 13.0 0.00 0.00 0.00 77 1014.2
20260505211704 82 84 8.0 10.0 0.00 0.00 0.00 77 1014.2
20260505211204 82 107 8.0 10.0 0.00 0.00 0.00 77 1014.2
20260505210703 82 82 9.0 10.0 0.00 0.00 0.00 77 1014.2
20260505210204 81 80 8.0 13.0 0.00 0.00 0.00 80 1014.2
20260505204703 82 60 8.0 12.0 0.00 0.00 0.00 78 1014.2
20260505204203 82 88 7.0 12.0 0.00 0.00 0.00 78 1014.2
20260505203703 82 93 9.0 13.0 0.00 0.00 0.00 77 1014.2
20260505203204 83 74 8.0 12.0 0.00 0.00 0.00 77 1014.2
20260505201704 81 76 9.0 12.0 0.00 0.00 0.00 77 1014.2
20260505201204 81 76 8.0 12.0 0.00 0.00 0.00 79 1014.2
20260505200704 82 77 8.0 13.0 0.00 0.00 0.00 79 1014.2
20260505200204 82 93 7.0 13.0 0.00 0.00 0.00 79 1014.2
20260505194704 82 90 9.0 13.0 0.00 0.00 0.00 77 1014.2
20260505194204 82 68 9.0 13.0 0.00 0.00 0.00 76 1014.5
20260505193204 83 94 9.0 13.0 0.00 0.00 0.00 74 1015.2
20260505191704 83 94 9.0 13.0 0.00 0.00 0.00 76 1015.2
20260505191204 83 73 10.0 15.0 0.00 0.00 0.00 73 1015.2
20260505190705 85 67 8.0 12.0 0.00 0.00 0.00 74 1015.2
20260505190204 84 95 10.0 13.0 0.00 0.00 0.00 72 1015.2
20260505184704 83 91 9.0 13.0 0.00 0.00 0.00 73 1015.2
20260505184203 83 104 10.0 13.0 0.00 0.00 0.00 73 1015.2
20260505183703 84 70 9.0 14.0 0.00 0.00 0.00 72 1015.2
20260505183204 83 87 8.0 13.0 0.00 0.00 0.00 73 1015.2
20260505180705 82 89 9.0 12.0 0.00 0.00 0.00 76 1015.2
20260505180204 82 90 7.0 12.0 0.00 0.00 0.00 78 1015.2
20260505174204 81 93 9.0 14.0 0.00 0.00 0.00 79 1015.6
20260505173204 81 91 12.0 15.0 0.00 0.00 0.00 79 1015.2
20260505171705 83 89 10.0 13.0 0.00 0.00 0.00 73 1015.2
20260505171203 84 112 9.0 12.0 0.00 0.00 0.00 75 1015.2
20260505170704 84 100 9.0 14.0 0.00 0.00 0.00 72 1015.2
20260505170203 84 82 9.0 13.0 0.00 0.00 0.00 74 1015.2
20260505164704 83 78 9.0 12.0 0.00 0.00 0.00 74 1016.2
20260505164204 83 90 10.0 15.0 0.00 0.00 0.00 75 1016.2
20260505163705 83 69 10.0 13.0 0.00 0.00 0.00 75 1016.2
20260505163203 83 66 11.0 15.0 0.00 0.00 0.00 73 1016.2
20260505161705 84 97 9.0 13.0 0.00 0.00 0.00 74 1016.2
20260505161203 83 111 8.0 13.0 0.00 0.00 0.00 76 1016.2
20260505160703 82 70 9.0 13.0 0.00 0.00 0.00 75 1016.2
20260505160204 83 88 7.0 13.0 0.00 0.00 0.00 74 1016.2
20260505151705 83 63 9.0 13.0 0.00 0.04 0.00 72 1016.2
20260505151203 84 71 8.0 12.0 0.00 0.04 0.00 72 1015.7
20260505150704 84 95 9.0 12.0 0.00 0.04 0.00 74 1015.2
20260505150205 83 102 11.0 14.0 0.00 0.04 0.00 72 1015.2
20260505140204 82 84 8.0 13.0 0.00 0.20 0.00 75 1015.2
20260505130203 81 75 7.0 10.0 0.00 0.28 0.00 78 1015.2
20260505124705 82 64 7.0 9.0 0.00 0.28 0.00 74 1015.2
20260505123704 79 96 7.0 10.0 0.00 0.28 0.00 84 1015.2
20260505123204 78 77 7.0 10.0 0.00 0.28 0.00 82 1015.2
20260505121204 78 63 5.0 8.0 0.00 0.28 0.00 87 1014.5
20260505120704 78 94 7.0 10.0 0.00 0.28 0.00 85 1014.2
20260505120204 78 79 5.0 9.0 0.00 0.28 0.00 87 1014.2
20260505114704 77 68 5.0 8.0 0.00 0.28 0.00 90 1014.2
20260505113705 76 70 3.0 9.0 0.00 0.28 0.00 93 1014.2
20260505113203 75 91 5.0 9.0 0.00 0.28 0.00 95 1014.2
20260505111704 74 88 3.0 6.0 0.00 0.28 0.00 95 1014.2
20260505111204 74 82 7.0 10.0 0.00 0.28 0.00 95 1014.2
20260505110705 74 84 7.0 8.0 0.00 0.28 0.00 95 1014.2
20260505110204 74 81 4.0 8.0 0.00 0.28 0.00 95 1014.2
20260505101704 73 79 5.0 6.0 0.00 0.28 0.00 96 1014.2
20260505100704 73 71 5.0 8.0 0.00 0.28 0.00 95 1013.2
20260505100204 73 86 5.0 8.0 0.00 0.28 0.00 95 1013.2
20260505094704 74 93 5.0 6.0 0.00 0.31 0.00 95 1013.2
20260505093704 74 84 5.0 6.0 0.00 0.31 0.00 94 1013.2
20260505093204 74 108 6.0 8.0 0.00 0.35 0.00 94 1013.2
20260505091204 73 71 5.0 8.0 0.00 0.35 0.00 95 1013.2
20260505090704 73 85 5.0 6.0 0.00 0.35 0.00 95 1013.2
20260505090204 73 104 6.0 8.0 0.00 0.35 0.00 95 1013.2
20260505084704 73 98 6.0 8.0 0.00 0.35 0.00 94 1013.2
20260505084205 73 92 5.0 6.0 0.00 0.35 0.00 95 1013.2
20260505083703 73 82 4.0 7.0 0.00 0.35 0.00 95 1013.2
20260505083204 73 91 5.0 6.0 0.00 0.35 0.00 94 1013.2
20260505081704 73 78 5.0 7.0 0.00 0.35 0.00 94 1013.2
20260505081205 73 90 5.0 8.0 0.00 0.35 0.00 94 1013.2
20260505080704 73 87 5.0 8.0 0.00 0.35 0.00 94 1013.2
20260505080205 73 92 6.0 8.0 0.00 0.35 0.00 93 1013.2
20260505074704 73 98 5.0 8.0 0.00 0.35 0.00 93 1013.2
20260505074204 73 87 5.0 8.0 0.00 0.35 0.00 93 1013.2
20260505073703 73 93 5.0 8.0 0.00 0.35 0.00 93 1013.2
20260505073204 73 99 5.0 8.0 0.00 0.35 0.00 92 1013.2
20260505071704 73 87 5.0 8.0 0.00 0.35 0.00 92 1014.2
20260505071203 73 88 7.0 8.0 0.00 0.35 0.00 91 1014.2
20260505070704 73 76 5.0 6.0 0.00 0.35 0.00 91 1014.2
20260505064203 73 89 5.0 6.0 0.00 0.35 0.00 91 1014.2
20260505063704 73 94 4.0 8.0 0.00 0.35 0.00 91 1014.2
20260505063203 73 70 5.0 8.0 0.00 0.35 0.00 91 1014.2
20260505061704 73 81 5.0 8.0 0.00 0.35 0.00 90 1014.2
20260505060703 73 78 6.0 8.0 0.00 0.35 0.00 90 1014.2
20260505060203 73 101 6.0 9.0 0.00 0.35 0.00 90 1014.2
20260505054704 73 96 6.0 9.0 0.00 0.35 0.00 91 1014.2
20260505054203 73 88 6.0 8.0 0.00 0.35 0.00 91 1014.2
20260505053704 73 93 6.0 8.0 0.00 0.35 0.00 91 1014.2
20260505053204 73 87 6.0 8.0 0.00 0.35 0.00 91 1014.2
20260505051704 73 105 6.0 8.0 0.00 0.35 0.00 90 1015.2
20260505050704 73 89 5.0 8.0 0.00 0.39 0.00 90 1015.2
20260505050204 73 107 5.0 9.0 0.00 0.39 0.00 90 1015.2
20260505041704 73 88 5.0 6.0 0.00 0.39 0.00 90 1015.2
20260505040703 73 93 5.0 8.0 0.00 0.39 0.00 90 1015.2
20260505034703 73 82 5.0 8.0 0.00 0.39 0.39 89 1015.2
20260505034205 73 86 5.0 8.0 0.00 0.39 0.39 89 1015.2
20260505033704 73 92 5.0 8.0 0.00 0.39 0.39 89 1015.2
20260505033203 73 103 7.0 8.0 0.00 0.39 0.39 89 1015.2
20260505031704 73 82 4.0 6.0 0.00 0.39 0.39 88 1015.2
20260505031203 73 82 5.0 6.0 0.00 0.39 0.39 87 1015.2
20260505030704 73 95 5.0 9.0 0.00 0.39 0.39 86 1015.2
20260505030204 73 99 5.0 8.0 0.00 0.39 0.39 86 1015.2
20260505024704 74 103 6.0 9.0 0.00 0.39 0.39 87 1015.2
20260505024204 74 89 4.0 8.0 0.00 0.39 0.39 88 1015.2
20260505023704 74 95 6.0 8.0 0.00 0.39 0.39 88 1015.2
20260505023204 74 105 5.0 9.0 0.00 0.39 0.39 88 1015.2